Temperature
15 15 15 15 16 16 16 16 17 17 17 17 18 18 18 18 18 18 18 18 18 18 18 18 18 18 18 18 18 18 18 18 18 18 18 18 18 18 18 17 17 17 17
14 15 15 15 15 15 16 16 16 16 17 17 17 18 18 18 18 18 18 18 18 18 18 18 18 18 18 18 18 18 18 18 18 18 18 18 18 18 18 17 17 17 17
14 14 14 15 15 15 15 15 16 16 16 17 17 17 17 18 18 18 18 18 18 18 18 18 18 18 18 18 18 18 18 18 18 18 18 18 18 17 17 17 17 17 17
14 14 14 14 15 15 15 15 15 16 16 16 17 17 17 17 17 18 18 18 18 18 18 18 18 18 18 18 18 18 18 18 17 17 18 18 17 17 17 17 17 17 17
14 14 14 14 14 14 15 15 15 15 16 16 16 17 17 17 17 18 17 18 18 18 18 18 18 18 18 18 18 18 18 18 17 17 17 17 17 17 17 17 17 17 17
13 13 14 14 14 14 14 14 15 15 15 15 16 16 17 17 17 17 17 17 17 18 18 18 18 18 18 18 18 18 18 18 17 17 17 17 17 17 17 17 17 17 17
13 13 13 13 13 14 14 14 14 15 15 15 15 16 16 16 17 17 17 17 17 17 18 18 18 18 18 18 18 18 18 18 17 17 17 17 17 17 17 17 17 17 16
13 13 13 13 13 13 13 14 14 14 14 15 15 15 15 16 17 17 17 17 17 17 17 18 18 18 18 18 18 18 18 18 17 17 17 17 17 17 17 17 17 17 16
12 12 12 13 13 13 13 13 14 14 14 14 14 14 15 15 16 17 17 17 17 17 17 18 18 18 18 18 18 18 18 18 17 17 17 17 17 17 17 17 17 16 16
12 12 12 12 13 13 13 13 13 13 14 14 14 14 14 15 15 16 17 17 17 17 17 17 17 18 18 18 18 18 18 18 17 17 17 17 17 17 17 17 17 16 16
12 12 12 12 12 12 13 13 13 13 13 13 14 14 14 14 15 15 16 17 17 17 17 17 17 17 17 17 18 18 18 17 17 17 17 17 17 17 17 17 16 16 16
12 12 12 12 12 12 12 12 13 13 13 13 14 14 14 14 14 15 15 16 16 17 17 17 17 17 17 17 17 18 17 17 17 17 17 17 17 17 17 17 16 16 16
12 12 12 12 12 12 12 12 12 12 13 13 13 13 14 14 14 14 14 15 15 16 16 17 17 17 17 17 17 17 17 17 17 17 17 17 17 17 17 17 16 16 16
11 11 12 12 12 12 12 12 12 12 12 13 13 13 13 14 14 14 14 14 15 15 16 16 17 17 17 17 17 17 17 17 17 17 17 17 17 17 17 16 16 16 16
11 11 11 12 12 12 12 12 12 12 12 12 13 13 13 13 14 14 14 14 14 14 15 16 16 17 17 17 17 17 17 17 17 17 17 17 17 17 17 16 16 16 16
11 11 11 11 11 12 12 12 12 12 12 12 12 13 13 13 13 14 14 14 14 14 14 15 16 16 16 16 16 16 17 17 17 17 17 17 17 17 16 16 16 16 16
11 11 11 11 11 11 11 12 12 12 12 12 12 12 13 13 13 13 14 14 14 14 14 15 15 15 15 16 16 16 16 16 16 16 17 17 17 16 16 16 16 16 16
11 11 11 11 11 11 11 11 12 12 12 12 12 12 12 13 13 13 13 13 14 14 14 14 15 15 15 15 15 16 16 16 16 16 16 16 16 16 16 16 16 16 16
12 12 11 11 11 11 11 11 11 12 12 12 12 12 12 12 13 13 13 13 13 13 14 14 14 14 15 15 15 15 15 15 16 16 16 16 16 16 16 16 16 15 15
12 12 12 12 11 11 11 11 11 12 12 12 12 12 12 12 12 13 13 13 13 13 13 13 14 14 14 14 14 15 15 15 15 15 15 15 16 16 16 15 15 15 15
12 12 12 12 12 12 11 11 11 11 12 12 12 12 12 12 12 12 12 13 13 13 13 13 13 14 14 14 14 14 14 15 15 15 15 15 15 15 15 15 15 15 15
13 12 12 12 12 12 12 11 11 11 12 12 12 12 12 12 12 12 12 12 12 13 13 13 13 13 14 14 14 14 14 14 14 15 15 15 15 15 15 15 15 15 15
13 13 12 12 12 12 12 12 11 11 11 11 12 12 12 12 12 12 12 12 12 12 13 13 13 13 14 14 14 14 14 14 14 14 14 14 14 14 15 15 15 15 15
13 13 13 12 12 12 12 12 11 11 11 11 11 12 12 12 12 12 12 12 12 12 12 13 13 13 13 13 13 14 14 13 14 14 13 13 14 14 14 14 14 14 14
13 13 13 13 12 12 12 12 12 12 12 12 11 11 12 12 12 11 12 12 12 12 12 12 13 13 13 13 13 13 13 13 13 13 13 13 13 13 13 14 14 14 14
13 13 13 13 13 12 12 12 12 12 12 12 12 11 12 12 12 11 11 11 12 12 12 12 13 13 13 13 13 13 13 13 12 13 13 13 13 13 13 13 13 13 13
Wind_Speed
3 3 3 3 4 4 4 3 4 4 4 4 4 4 4 5 6 7 9 14 16 16 15 15 15 14 14 13 13 13 13 14 15 14 13 13 13 13 12 11 11 10 10
3 3 3 3 3 4 5 4 4 4 4 3 4 4 3 3 4 6 8 12 17 18 17 17 16 15 15 14 14 14 14 15 15 15 14 14 14 13 12 11 11 10 9
3 2 3 3 3 5 4 4 4 3 4 4 4 4 3 3 3 5 7 8 12 17 18 17 17 16 16 15 15 15 15 15 16 16 15 15 14 13 12 11 11 10 9
5 2 2 3 3 3 2 3 3 3 3 3 3 4 3 3 3 4 6 7 9 11 14 17 17 17 17 17 16 16 16 16 16 16 16 15 15 14 13 12 11 10 9
6 3 3 3 3 2 2 3 2 2 3 3 4 4 3 3 3 4 5 6 8 9 11 14 17 18 18 18 17 17 17 17 17 17 16 16 15 14 14 12 11 10 9
7 4 3 3 3 2 2 2 2 2 2 3 4 4 2 3 3 4 5 5 7 9 11 12 13 15 18 18 19 19 18 18 18 17 17 16 16 15 14 13 12 11 10
7 4 3 3 3 2 3 3 2 2 2 1 1 2 3 3 4 4 4 5 6 8 9 11 12 12 14 18 19 20 20 19 19 19 18 17 16 16 15 14 13 12 10
7 4 3 3 3 2 3 2 1 1 2 1 1 1 2 2 3 5 4 5 6 6 7 10 12 13 13 14 17 21 21 21 20 20 19 18 17 16 16 15 13 13 11
6 5 4 3 3 2 2 3 1 1 2 2 2 2 2 3 2 2 3 4 5 6 7 6 10 13 15 15 15 19 21 22 22 21 21 20 19 17 17 16 15 14 12
6 5 4 4 3 2 2 3 2 1 2 2 2 2 2 2 2 2 2 2 4 6 7 8 8 10 14 14 16 18 22 23 23 23 22 21 20 19 18 17 16 15 13
5 5 4 4 4 3 3 3 3 2 2 2 2 2 2 2 2 2 2 2 2 3 5 7 6 7 12 14 15 18 22 24 24 23 23 22 22 21 20 19 17 16 15
4 6 5 4 4 3 3 3 3 3 2 3 3 3 3 3 3 3 3 3 3 2 3 4 6 6 9 14 17 21 23 25 25 25 24 23 23 22 21 20 19 18 16
4 6 5 4 4 4 4 3 3 3 3 3 4 4 4 4 3 3 3 3 3 2 2 3 5 5 8 11 15 21 22 24 26 26 25 24 23 23 22 21 20 19 18
4 5 5 5 5 5 4 3 3 3 3 3 4 4 3 4 4 4 4 3 2 2 3 4 2 5 6 9 14 18 18 23 25 26 25 24 23 23 23 22 21 20 19
4 5 6 5 6 5 4 3 2 3 3 3 4 4 3 4 4 4 4 4 5 4 4 5 4 4 4 6 10 13 14 20 24 25 25 25 24 23 23 22 21 21 20
5 6 6 6 6 5 4 3 3 4 3 3 3 3 4 3 4 4 4 4 5 5 5 4 4 3 4 5 8 10 13 16 21 24 24 25 24 24 23 22 22 21 20
4 5 5 5 5 5 4 3 4 4 4 4 4 4 4 4 3 3 4 4 4 5 6 4 3 3 4 4 4 6 9 10 13 20 23 24 24 24 24 23 22 22 21
4 4 5 5 5 5 4 4 4 4 4 4 5 4 5 4 3 3 3 4 4 5 5 5 3 3 5 5 6 6 6 8 9 16 21 23 23 24 24 23 23 22 22
4 4 4 5 5 5 4 4 4 4 4 5 4 5 5 4 4 3 3 4 4 4 4 4 4 3 3 3 4 5 5 5 7 12 17 20 22 23 23 23 23 23 23
4 4 4 5 5 5 5 4 4 4 5 5 5 4 5 4 4 4 4 4 4 4 4 4 4 3 3 3 4 4 5 5 6 6 8 12 16 20 22 23 23 23 23
4 4 4 5 5 5 4 5 4 4 4 5 5 5 5 6 6 4 4 4 4 4 4 4 5 3 4 4 4 4 5 5 5 5 5 6 8 9 13 20 22 23 24
4 4 5 5 6 5 8 8 6 4 4 5 6 6 6 6 6 6 5 5 6 6 6 5 5 6 6 5 5 5 5 4 4 5 6 6 7 8 9 12 18 22 23
4 5 5 5 6 8 10 9 8 4 4 5 5 5 5 5 5 4 5 5 5 7 8 7 7 7 6 6 6 6 6 6 5 4 5 6 6 8 7 12 18 22 23
5 5 6 6 6 8 9 8 8 4 4 5 5 5 5 5 5 4 3 4 4 5 6 6 7 7 7 6 7 7 6 4 2 3 5 5 5 5 5 8 17 21 22
5 5 6 6 6 8 9 8 6 3 4 6 6 5 5 5 7 6 3 4 5 5 6 8 8 8 9 10 8 5 5 5 4 4 4 4 3 3 3 5 10 19 21
6 6 6 6 6 7 9 9 6 2 4 5 5 5 7 7 8 6 4 4 6 6 5 5 5 7 7 8 10 9 8 7 4 4 5 5 4 4 3 3 5 9 12
Wind_Direction
275 276 267 263 256 248 237 235 237 234 231 235 233 240 246 240 242 222 222 222 212 204 198 189 182 181 180 179 176 172 167 163 161 159 155 152 148 145 143 141 140 137 134
275 283 278 266 258 252 242 233 234 239 237 234 240 236 234 230 231 221 219 221 212 204 199 192 186 184 183 182 180 176 172 169 167 164 162 157 153 151 149 147 145 143 140
306 293 290 283 270 267 255 244 239 233 238 243 242 238 228 213 218 216 215 217 211 207 201 195 190 187 186 185 182 179 176 175 173 170 167 163 161 159 157 155 152 148 144
347 334 313 295 284 277 257 254 242 236 238 242 251 250 230 208 213 215 210 212 207 207 206 201 193 190 189 188 185 182 181 181 178 175 172 170 168 165 164 163 160 156 153
345 341 315 301 308 290 267 272 256 234 240 249 257 252 239 225 215 228 215 211 207 206 203 205 199 194 192 191 190 187 185 184 183 181 179 176 173 172 172 171 167 164 163
343 342 321 318 325 314 294 284 270 254 239 245 260 263 251 247 233 226 220 211 211 212 206 202 199 200 198 195 194 192 189 188 187 186 185 183 181 179 179 177 175 174 174
340 338 333 330 332 317 293 282 264 268 262 220 230 278 277 246 234 228 215 208 208 210 206 201 197 197 202 202 198 197 194 192 191 191 190 189 186 185 184 183 184 183 183
343 345 343 331 330 330 327 312 270 257 256 202 175 201 288 299 262 234 209 208 209 202 206 206 202 198 198 199 203 201 198 196 195 195 194 193 191 190 189 189 191 190 190
349 344 341 339 338 339 320 311 288 236 250 238 192 187 194 234 278 288 236 218 202 198 206 202 205 203 202 200 201 204 201 198 198 199 197 196 195 196 194 194 195 195 196
345 347 344 344 341 338 321 308 324 257 234 246 242 221 216 201 203 296 305 253 214 205 203 207 210 206 205 202 202 204 204 202 202 203 202 200 199 199 198 198 198 199 196
333 337 336 341 337 324 312 309 314 296 239 227 222 222 233 228 212 204 265 293 273 227 208 206 207 207 208 205 205 207 205 204 204 205 205 203 202 201 201 201 202 201 198
319 326 326 325 322 317 305 297 294 295 272 255 240 217 207 213 209 200 227 254 258 253 224 209 204 208 208 207 211 210 206 205 205 206 206 205 204 204 203 204 204 203 201
313 315 323 316 312 304 297 289 286 288 278 268 255 239 227 227 212 197 209 231 242 263 244 227 212 203 209 208 214 213 208 206 206 207 206 206 206 205 205 206 206 205 205
292 304 317 318 314 311 309 301 292 283 277 269 265 252 237 238 223 208 197 191 225 253 246 240 226 209 210 207 213 212 212 209 209 207 206 206 205 205 206 207 207 207 206
308 322 326 327 326 324 317 314 302 297 294 276 269 262 246 240 231 222 210 195 194 220 240 231 220 213 209 208 207 206 209 211 211 209 207 206 205 204 205 206 206 206 204
323 327 331 333 334 334 331 328 314 307 311 298 285 284 271 254 243 226 219 214 204 204 229 231 219 217 214 221 206 201 207 212 212 210 208 206 205 204 204 204 203 202 201
320 328 330 334 337 339 340 339 325 324 325 314 309 300 287 273 252 236 223 216 209 203 229 244 220 214 206 218 209 208 208 209 213 212 210 208 206 205 204 203 202 202 200
315 321 327 335 338 341 340 336 324 327 318 314 310 306 297 293 271 248 228 224 219 210 215 237 225 209 215 214 209 206 211 213 212 215 213 211 208 205 204 203 203 201 200
313 322 326 326 325 325 326 322 309 308 301 295 295 294 288 290 282 263 242 230 225 221 213 225 232 212 217 207 205 209 209 211 212 216 214 213 210 206 205 204 203 201 201
301 308 308 307 309 309 308 306 306 304 303 299 295 291 283 270 267 263 254 239 228 223 217 227 234 224 219 206 190 201 210 209 210 205 207 210 210 208 206 205 204 202 200
292 293 300 308 310 305 300 300 297 299 301 304 304 298 290 283 277 264 256 234 219 220 222 225 232 226 216 199 205 198 208 205 210 197 193 200 202 208 207 208 206 204 201
290 294 295 299 304 304 310 311 307 296 301 302 304 307 303 295 297 296 288 261 229 222 223 219 226 228 228 216 206 201 200 200 216 195 190 205 198 208 208 204 205 202 201
277 287 288 289 291 293 303 310 314 305 299 298 297 301 310 314 321 304 299 298 274 253 234 221 223 228 225 215 202 205 206 205 214 188 183 209 203 212 205 203 200 199 199
266 272 278 281 283 291 300 303 312 307 301 305 301 293 294 302 304 298 290 297 287 278 259 242 231 233 230 221 207 208 208 208 216 192 178 205 202 210 202 201 199 198 197
266 266 271 276 280 289 296 295 303 299 299 303 303 300 295 292 299 302 286 287 292 288 274 258 249 245 240 228 207 190 191 198 221 211 187 187 187 187 194 207 200 197 195
263 272 278 275 271 278 289 289 290 264 285 295 300 299 296 292 296 297 275 271 278 280 281 283 272 265 250 229 212 206 202 205 205 210 191 176 175 166 188 204 195 193 196
Height
1510 1510 1509 1509 1509 1510 1511 1512 1513 1515 1516 1517 1518 1519 1521 1522 1523 1524 1526 1527 1529 1530 1531 1532 1533 1534 1536 1537 1539 1540 1542 1543 1545 1547 1548 1550 1551 1552 1554 1554 1555 1556 1557
1508 1507 1507 1506 1506 1507 1507 1508 1509 1511 1512 1513 1515 1516 1517 1519 1520 1522 1523 1525 1527 1528 1529 1530 1531 1533 1534 1536 1538 1539 1541 1543 1545 1546 1548 1550 1551 1552 1554 1555 1556 1557 1557
1505 1505 1504 1504 1504 1504 1504 1505 1506 1507 1508 1509 1511 1512 1514 1516 1517 1519 1521 1523 1524 1526 1527 1529 1530 1531 1533 1535 1536 1538 1540 1542 1544 1546 1547 1549 1551 1552 1553 1555 1556 1557 1557
1503 1502 1502 1501 1501 1501 1501 1502 1502 1503 1504 1506 1507 1509 1511 1512 1514 1516 1518 1520 1522 1524 1525 1527 1528 1530 1531 1533 1535 1537 1539 1541 1543 1545 1547 1548 1550 1552 1553 1554 1555 1556 1557
1501 1500 1499 1499 1498 1498 1498 1498 1499 1500 1501 1502 1504 1505 1507 1508 1511 1513 1515 1517 1519 1521 1523 1525 1527 1528 1530 1531 1533 1535 1537 1540 1542 1544 1546 1547 1549 1551 1552 1554 1555 1556 1557
1498 1497 1496 1496 1496 1495 1495 1495 1496 1497 1498 1499 1500 1502 1503 1505 1507 1509 1512 1514 1516 1518 1521 1522 1524 1526 1528 1530 1532 1534 1536 1538 1540 1542 1544 1546 1548 1550 1551 1553 1554 1555 1556
1496 1495 1494 1494 1493 1493 1493 1493 1493 1494 1495 1496 1497 1498 1500 1501 1503 1506 1508 1510 1512 1515 1517 1519 1522 1524 1525 1527 1529 1532 1534 1536 1538 1541 1543 1545 1546 1548 1550 1551 1553 1554 1555
1495 1494 1493 1492 1491 1491 1491 1491 1491 1492 1492 1494 1495 1496 1496 1499 1500 1502 1504 1506 1509 1511 1513 1516 1518 1521 1523 1525 1527 1529 1531 1533 1536 1538 1540 1543 1545 1546 1548 1550 1551 1552 1553
1494 1492 1491 1490 1489 1489 1489 1489 1489 1490 1490 1491 1492 1494 1495 1495 1496 1498 1500 1502 1505 1507 1510 1512 1515 1517 1520 1522 1524 1526 1528 1531 1533 1536 1538 1540 1542 1544 1546 1548 1549 1550 1552
1493 1491 1490 1489 1488 1487 1487 1487 1487 1488 1488 1489 1489 1491 1493 1493 1495 1495 1497 1499 1501 1503 1506 1508 1511 1513 1516 1518 1521 1523 1525 1528 1530 1533 1535 1537 1540 1542 1544 1546 1547 1548 1550
1492 1490 1489 1487 1486 1485 1485 1485 1485 1485 1486 1486 1487 1488 1489 1491 1492 1494 1494 1496 1498 1499 1502 1504 1507 1509 1512 1515 1517 1520 1522 1524 1527 1530 1532 1534 1537 1539 1541 1543 1545 1546 1547
1491 1489 1487 1486 1484 1483 1483 1482 1482 1482 1483 1483 1484 1485 1486 1487 1489 1490 1491 1492 1494 1496 1498 1500 1503 1505 1508 1511 1513 1516 1519 1521 1523 1526 1529 1531 1534 1536 1538 1540 1542 1544 1545
1490 1488 1486 1484 1483 1481 1481 1480 1480 1480 1480 1480 1481 1482 1483 1484 1485 1487 1489 1490 1491 1492 1494 1496 1498 1501 1504 1506 1509 1512 1514 1517 1519 1522 1525 1527 1530 1532 1535 1537 1539 1541 1542
1489 1487 1485 1483 1481 1480 1479 1479 1478 1478 1478 1478 1478 1478 1479 1480 1482 1483 1485 1487 1487 1489 1490 1492 1494 1496 1499 1501 1504 1507 1510 1512 1515 1518 1521 1523 1526 1528 1531 1533 1535 1537 1539
1488 1486 1484 1482 1480 1479 1478 1477 1476 1475 1475 1475 1475 1475 1476 1477 1478 1479 1481 1483 1485 1485 1486 1488 1490 1492 1494 1496 1499 1501 1504 1507 1510 1513 1516 1519 1522 1524 1527 1529 1532 1534 1536
1487 1485 1483 1481 1479 1477 1476 1475 1474 1473 1473 1472 1472 1472 1472 1473 1474 1475 1476 1478 1480 1481 1482 1483 1485 1488 1489 1491 1493 1496 1499 1502 1505 1509 1512 1514 1517 1520 1523 1525 1527 1530 1532
1486 1484 1482 1479 1477 1476 1474 1473 1472 1471 1470 1469 1469 1469 1469 1469 1470 1471 1472 1473 1475 1477 1477 1479 1481 1483 1485 1487 1488 1490 1493 1496 1499 1503 1506 1509 1512 1515 1518 1520 1523 1525 1527
1485 1483 1481 1478 1476 1474 1473 1471 1470 1469 1468 1467 1466 1466 1466 1466 1467 1467 1468 1469 1471 1472 1474 1474 1476 1478 1480 1482 1483 1485 1487 1490 1493 1496 1500 1503 1506 1509 1512 1515 1518 1520 1523
1485 1482 1480 1477 1475 1473 1471 1470 1468 1467 1465 1465 1464 1463 1463 1463 1463 1464 1464 1465 1467 1468 1469 1470 1471 1474 1475 1477 1478 1480 1482 1484 1487 1490 1494 1497 1500 1503 1506 1509 1512 1515 1517
1484 1482 1479 1477 1474 1472 1470 1468 1466 1465 1463 1462 1461 1461 1460 1460 1460 1461 1461 1462 1463 1464 1465 1466 1467 1468 1470 1472 1473 1475 1477 1479 1481 1484 1487 1490 1494 1497 1500 1503 1506 1509 1511
1483 1481 1478 1476 1474 1471 1469 1467 1465 1463 1461 1460 1459 1458 1458 1458 1457 1457 1458 1458 1459 1460 1461 1461 1462 1464 1465 1467 1468 1470 1472 1474 1476 1478 1481 1484 1487 1490 1492 1496 1499 1502 1505
1483 1480 1478 1475 1473 1470 1468 1466 1463 1461 1459 1458 1457 1456 1455 1455 1455 1455 1455 1455 1455 1456 1456 1457 1458 1459 1460 1462 1464 1466 1467 1469 1470 1472 1475 1477 1480 1482 1485 1488 1491 1495 1498
1481 1479 1477 1474 1472 1470 1467 1465 1462 1460 1458 1456 1454 1453 1452 1452 1452 1451 1451 1451 1451 1452 1453 1453 1453 1454 1456 1457 1459 1461 1461 1463 1464 1466 1469 1470 1473 1475 1478 1481 1485 1488 1491
1480 1478 1475 1473 1471 1469 1466 1464 1461 1459 1457 1455 1453 1452 1450 1449 1448 1448 1447 1447 1447 1448 1448 1449 1449 1450 1452 1453 1454 1455 1456 1458 1460 1461 1463 1465 1467 1469 1472 1474 1477 1480 1483
1478 1476 1474 1472 1469 1467 1465 1462 1460 1458 1456 1454 1452 1450 1448 1447 1446 1445 1444 1443 1443 1444 1444 1444 1445 1445 1446 1448 1449 1450 1451 1453 1454 1455 1457 1459 1461 1463 1465 1467 1470 1473 1476
1475 1474 1472 1470 1468 1465 1463 1461 1459 1456 1454 1452 1450 1448 1446 1445 1443 1442 1441 1440 1439 1439 1439 1439 1439 1440 1440 1442 1443 1444 1446 1447 1448 1450 1451 1453 1455 1458 1459 1461 1464 1466 1469